559  
ASUS43 KBIS 021210  
RWRBIS  
 
NWR BROADCAST TEXT  
NATIONAL WEATHER SERVICE BISMARCK ND  
600 AM CST FRI DEC 02 2022  
 
NOTE: "FAIR" INDICATES FEW OR NO CLOUDS BELOW 12,000 FEET WITH NO  
SIGNIFICANT WEATHER AND/OR S TO VISIBILITY
.  
 
 
CITY SKY/WX TMP DP RH WIND PRES REMARKS
 
WILLISTON MIX PCPN 0 -5 79 NW21G31 29.75R WCI -22  
MINOT CLOUDY 13 7 77 NW20 29.66R WCI -5  
MINOT AFB MOCLDY 11 5 79 N18 29.64R WCI -7  
BISMARCK MOCLDY 13 7 77 NW16G26 29.63R WCI -3  
DICKINSON CLOUDY 10 5 80 NW22 29.61R WCI -10  
GARRISON N/A 13 9 84 NW13 29.65R WCI -2  
HETTINGER ARPT LGT SNOW 14 10 84 NW18G24 29.64R FOG WCI -3  
JAMESTOWN CLOUDY 19 15 84 N21 29.48S WCI 3  
CARRINGTON CLOUDY 14 12 92 N18 29.57S WCI -3  
HAZEN FLURRIES 14 10 85 N13 29.70R WCI 0  
MANDAN MOCLDY 10 9 92 NW20G28 29.61R WCI -8  
OAKES MOCLDY 23 23 100 W5 29.45R WCI 17  
RUGBY FAIR 7 5 92 NW6 29.65R WCI -3  
STANLEY FLURRIES 5 1 85 NW17G25 29.71R WCI -14  
TIOGA CLOUDY 0 -2 92 NW20G28 29.73R WCI -22  
WATFORD CITY LGT SNOW 5 0 78 NW13G20 29.77S WCI -12  

 
 
CITY SKY/WX TMP DP RH WIND PRES REMARKS
 
GRAND FORKS CLOUDY 17 11 77 N22G32 29.56R WCI 0  
GRAND FORKS AF CLOUDY 16 11 80 N18 29.56R WCI -1  
DEVILS LAKE CLOUDY 13 8 81 N23 29.59R WCI -6  
FARGO CLOUDY 24 21 88 N10 29.48R WCI 14  
CANDO CLOUDY 9 7 92 N15 29.65R WCI -8  
CAVALIER CLOUDY 12 10 92 N18G26 29.62S WCI -5  
GRAFTON CLOUDY 16 12 86 N24G33 29.61R WCI -3  
GWINNER CLEAR 25 25 100 W10 29.43R WCI 15  
LANGDON CLOUDY 9 9 100 N15 29.58S WCI -8  
ROLLA CLOUDY 7 5 92 N21 29.62R WCI -13  
WALHALLA CLOUDY 10 9 92 N16 29.64F WCI -7  

 
 
CITY SKY/WX TMP DP RH WIND PRES REMARKS
 
ABERDEEN CLOUDY 28 25 88 W7 29.45R  
MOBRIDGE CLOUDY 22 15 75 NW26G37 29.52R WCI 5  
BUFFALO N/A 14 9 80 NW25G38 29.63R WCI -5  
RAPID CITY MOCLDY 19 13 77 N37G54 29.52R WCI -2  
SIDNEY LGT SNOW 5 -1 76 NW15 29.83R WCI -13  
GLENDIVE LGT SNOW 5 0 79 NW16 29.80R WCI -14  

 
 
CITY SKY/WX TMP DP RH WIND PRES REMARKS
 
BILLINGS CLOUDY 10 7 87 NE10 29.74R WCI -4  
GREAT FALLS CLOUDY -2 -5 87 NW3 29.84R  
REGINA MOCLDY -11 -17 77 NW20 29.87R WCI -36  
ESTEVAN LGT SNOW 0 -4 85 NW22G30 29.75 WCI -23  

 
 
 
 
CLICK HERE TO GO TO PREVIOUS BULLETINS.

The Nexlab ND Page Main Text Page